Wind_Speed
38 42 45 48 50 50 50 50 50 51 53 55 56 58 59 59 60 62 63 62 60 59 59 61 63 64 66 68 69 71 72 73 73 72 73 73 73 71 67 63 58 56 54
41 45 48 50 51 50 49 51 53 55 56 57 58 58 59 60 62 63 62 60 59 59 60 62 64 66 67 68 69 70 72 73 74 72 67 64 60 57 54 51 48 45 42
44 47 49 49 48 50 52 54 57 58 58 58 57 57 58 59 59 58 58 58 58 59 60 62 63 65 66 68 69 70 71 69 67 62 56 51 47 46 43 41 37 34 32
46 48 49 51 53 55 57 59 59 58 57 57 56 56 57 57 58 59 58 57 57 57 59 61 62 64 66 67 67 66 63 58 53 49 45 40 38 38 35 31 27 25 24
48 50 53 55 57 59 60 59 58 57 56 57 57 58 59 58 58 56 54 54 55 56 58 60 61 63 65 64 60 54 49 45 42 38 33 31 30 29 26 21 20 20 20
51 53 55 57 58 58 57 57 57 57 58 58 58 59 58 56 53 52 52 53 54 55 57 59 59 59 57 52 46 41 38 36 31 27 24 22 21 19 18 16 15 16 16
52 52 53 53 53 52 54 56 57 58 58 57 56 56 53 51 49 49 50 52 54 55 55 54 52 48 43 38 34 32 30 27 22 18 16 15 15 14 13 12 11 11 11
48 47 47 48 49 52 53 55 55 54 54 53 53 51 49 48 48 49 50 51 51 50 48 45 41 36 32 29 26 23 20 17 14 12 11 11 11 10 9 8 8 8 8
42 43 45 48 49 51 52 52 52 51 50 50 48 47 46 47 47 48 47 45 44 42 40 35 31 27 24 22 18 14 12 11 10 10 9 9 8 8 7 7 7 7 7
41 43 45 47 48 48 49 49 49 47 46 45 45 45 45 45 44 41 38 37 37 36 32 28 25 22 20 16 13 11 10 10 10 9 9 9 8 8 7 8 8 8 8
39 40 42 44 45 46 46 45 44 43 43 43 43 43 41 39 35 32 31 32 31 27 24 21 20 17 14 11 10 10 10 10 11 11 11 10 10 10 10 11 11 12 12
38 40 42 43 42 41 41 41 42 42 42 41 40 37 34 29 27 27 29 29 24 20 17 15 13 11 10 9 9 10 11 12 13 12 12 12 13 14 14 13 12 11 9
38 38 39 39 39 40 41 41 41 40 38 36 32 29 27 26 26 27 27 23 17 14 11 9 8 7 7 8 10 12 13 14 14 14 14 15 15 13 11 11 9 9 8
35 36 37 38 39 40 40 39 36 34 31 27 25 25 26 26 26 26 23 17 11 8 5 4 5 6 7 9 11 13 14 14 14 15 16 14 13 13 14 14 14 14 14
35 36 37 38 37 36 34 32 29 26 24 24 25 25 25 24 22 21 16 11 6 3 2 3 4 6 9 11 12 13 14 14 15 16 15 15 15 16 16 16 16 16 16
36 36 36 34 32 29 27 25 24 24 24 24 24 23 21 19 17 14 10 5 2 1 2 3 5 7 10 12 12 13 13 15 16 16 16 17 17 17 17 17 17 17 17
35 33 30 28 25 23 22 22 23 22 21 20 19 18 16 14 11 7 4 2 3 4 4 4 6 8 11 12 12 13 13 15 16 17 18 18 18 17 17 18 18 17 17
28 25 23 22 22 21 21 21 19 17 16 15 14 13 11 9 5 1 3 5 6 7 6 6 7 9 11 12 12 12 13 15 17 19 19 19 18 17 17 17 17 17 17
21 20 20 20 20 19 17 16 14 12 12 11 10 8 7 5 4 5 7 9 9 8 7 8 9 10 11 11 12 13 14 16 18 20 21 21 21 20 19 18 17 17 16
20 20 19 18 16 15 13 11 10 9 9 9 8 7 6 7 8 10 11 11 11 10 9 9 10 11 12 12 13 14 16 18 19 20 22 23 23 23 23 22 21 20 20
20 19 18 15 13 11 9 8 8 8 8 8 8 9 10 11 12 13 13 13 13 12 11 11 11 12 13 14 15 16 17 18 19 19 21 22 24 25 25 25 25 24 24
19 18 16 13 11 9 8 7 7 7 7 9 10 11 13 14 15 15 14 14 14 13 12 12 13 14 14 15 16 17 17 18 18 18 18 19 21 22 22 23 24 24 25
20 18 15 13 10 9 8 8 8 9 10 11 12 14 15 16 16 16 15 15 14 13 12 13 14 15 15 16 17 18 18 17 16 16 16 16 17 19 19 19 20 20 21
22 19 16 14 12 11 10 10 10 11 11 12 14 16 17 16 16 15 15 14 13 12 12 13 14 14 15 16 17 18 18 18 17 16 16 16 16 17 18 18 18 18 19
24 21 18 16 14 13 13 12 13 13 14 15 16 17 17 16 15 14 13 13 12 12 12 12 13 14 14 14 16 17 18 18 18 17 17 17 18 18 19 19 18 18 19
27 25 22 19 18 17 17 16 15 15 16 16 16 17 16 15 14 13 12 12 11 11 11 11 12 13 13 13 14 16 17 17 17 17 17 17 17 17 17 17 17 17 17
Wind_Direction
281 284 287 289 291 291 292 293 296 299 300 299 297 296 294 295 296 299 298 295 294 294 295 297 297 297 296 295 295 295 295 294 293 291 290 289 288 287 286 285 282 279 275
279 282 285 287 289 289 292 295 298 300 300 298 296 294 294 295 297 299 298 295 294 296 297 298 297 297 297 297 296 296 295 294 293 292 292 292 291 289 287 286 283 280 274
277 280 283 286 288 290 293 296 297 298 297 295 293 294 296 298 300 301 300 298 297 298 298 298 298 298 298 297 296 295 295 295 295 295 295 293 290 289 288 287 284 278 272
276 279 283 286 288 290 292 294 294 294 294 294 294 297 300 301 302 302 302 300 300 300 300 299 299 299 298 297 296 296 297 297 297 296 296 293 291 290 289 287 283 277 270
279 281 284 286 288 289 291 292 293 293 293 296 298 300 303 303 304 304 303 302 302 302 301 301 300 298 297 298 299 299 299 299 298 298 298 295 292 292 293 289 282 275 270
284 284 285 286 287 289 291 292 293 294 296 298 299 301 303 305 305 305 304 303 303 303 303 302 300 299 300 302 303 303 303 303 303 303 302 299 298 299 298 294 286 280 275
288 288 288 289 289 289 290 291 294 295 298 300 301 303 304 305 305 305 305 305 305 305 304 303 303 304 305 307 308 308 308 309 312 313 311 310 310 309 307 303 299 294 289
290 290 290 287 286 288 289 292 295 297 299 300 302 303 305 305 306 307 307 307 307 307 307 308 309 311 312 315 317 317 318 322 326 328 328 326 324 323 321 319 317 310 304
287 285 283 283 287 290 292 295 296 298 299 301 303 305 306 307 308 308 309 309 310 312 313 315 318 321 326 330 334 340 345 349 349 349 348 346 344 339 333 329 324 318 311
284 282 283 286 289 291 294 296 298 300 302 304 305 306 307 308 309 310 312 313 315 317 319 323 328 335 342 349 359 7 12 11 8 5 1 358 354 349 342 334 326 318 308
287 287 288 290 291 294 297 299 301 303 304 305 305 307 308 309 310 312 314 316 317 319 323 327 334 344 355 6 16 21 21 17 11 7 3 359 355 349 340 330 320 311 302
290 290 292 294 296 298 300 302 304 305 306 306 307 308 309 309 311 313 315 317 318 321 327 333 342 354 6 17 23 22 17 13 9 6 1 355 349 342 337 333 329 325 318
294 296 298 300 302 303 305 306 307 307 307 307 308 308 308 309 311 312 314 317 318 323 331 341 357 12 20 22 19 15 12 11 9 5 360 356 357 2 11 18 27 38 51
299 300 302 304 306 307 307 307 306 306 306 306 307 308 309 310 311 312 314 315 317 326 341 9 26 28 22 18 15 14 14 13 10 7 7 18 38 50 53 55 58 62 66
303 304 305 306 307 307 307 306 306 306 306 306 307 308 309 310 311 311 311 309 313 327 22 53 40 26 19 18 18 19 20 19 17 18 33 56 66 67 65 65 63 62 65
306 306 307 308 309 310 310 309 310 309 308 308 308 308 309 310 310 307 299 286 274 150 100 68 36 26 23 24 26 29 28 26 28 40 61 71 74 73 68 66 66 68 70
310 310 311 312 313 315 315 315 314 312 310 310 312 312 313 313 312 300 272 217 156 133 112 74 45 36 33 33 36 37 35 37 48 65 74 74 73 71 67 67 69 71 70
315 314 315 316 317 318 318 318 319 318 318 319 321 321 321 325 328 267 159 143 133 125 108 77 55 45 39 40 45 47 49 57 71 78 77 74 71 70 69 69 69 70 67
323 323 323 322 322 322 323 324 326 329 332 335 338 339 343 3 64 106 121 126 125 118 102 80 62 49 44 49 58 62 68 78 85 83 80 76 74 74 75 74 73 72 68
332 330 329 329 330 332 334 338 342 347 353 360 10 22 43 74 95 106 113 116 116 111 98 82 65 54 54 64 72 77 84 92 94 90 85 82 81 80 80 79 78 77 75
340 338 338 339 343 347 353 359 1 6 17 32 43 58 74 87 97 104 108 110 110 106 96 80 67 64 67 75 81 86 95 101 100 95 89 86 85 84 82 81 80 79 79
354 354 356 359 5 11 17 22 25 33 52 61 70 77 87 94 99 102 105 106 107 104 93 78 71 71 74 81 86 93 101 105 104 98 91 86 84 82 80 80 80 79 79
10 11 14 18 26 34 39 45 52 65 73 76 84 89 95 97 100 101 103 104 105 102 90 80 74 73 78 85 89 96 102 105 105 100 92 86 81 79 78 78 79 79 79
22 23 26 33 42 50 56 64 71 75 78 87 94 96 97 98 99 100 100 101 102 98 90 82 77 76 81 86 91 96 100 103 103 99 93 86 81 79 78 77 78 78 79
31 33 37 44 53 61 69 77 79 80 88 95 98 98 97 97 97 96 95 96 96 95 92 87 82 80 83 87 92 96 98 99 100 99 96 91 86 84 82 81 79 78 78
39 42 47 55 63 70 75 79 81 86 92 97 99 98 96 94 92 90 88 87 89 92 95 95 91 88 88 90 93 97 100 102 102 101 99 94 90 87 85 83 79 77 77
Height
5780 5777 5774 5770 5766 5762 5758 5754 5749 5745 5740 5735 5729 5723 5718 5711 5706 5700 5695 5689 5682 5676 5670 5663 5656 5649 5641 5633 5624 5616 5607 5599 5595 5592 5581 5573 5565 5559 5553 5548 5545 5543 5541
5771 5768 5764 5760 5756 5752 5747 5742 5737 5732 5727 5722 5716 5710 5704 5698 5692 5686 5679 5674 5668 5662 5655 5648 5640 5632 5623 5615 5606 5597 5588 5579 5572 5568 5562 5553 5546 5540 5536 5532 5529 5527 5526
5762 5758 5754 5749 5745 5741 5736 5731 5725 5720 5715 5709 5703 5697 5690 5684 5678 5672 5666 5659 5653 5647 5640 5632 5623 5615 5606 5597 5588 5579 5570 5561 5552 5547 5544 5538 5532 5526 5523 5519 5516 5515 5514
5751 5747 5743 5738 5733 5728 5723 5718 5712 5707 5701 5695 5689 5683 5677 5671 5665 5658 5652 5645 5638 5631 5623 5616 5607 5598 5589 5580 5571 5562 5553 5546 5539 5533 5529 5525 5521 5515 5512 5509 5507 5505 5505
5740 5735 5730 5725 5720 5715 5710 5704 5699 5693 5687 5682 5676 5670 5664 5657 5651 5644 5637 5630 5623 5616 5608 5600 5591 5581 5571 5563 5554 5547 5540 5533 5528 5523 5519 5515 5511 5507 5504 5502 5501 5499 5499
5727 5722 5717 5712 5707 5701 5696 5690 5684 5679 5674 5668 5662 5656 5650 5644 5637 5630 5623 5616 5609 5602 5594 5584 5575 5565 5557 5549 5541 5535 5528 5522 5518 5515 5511 5507 5505 5502 5500 5498 5496 5495 5494
5713 5708 5703 5698 5692 5687 5682 5677 5672 5666 5660 5655 5649 5643 5637 5631 5624 5617 5610 5603 5595 5587 5579 5570 5561 5553 5546 5539 5533 5526 5520 5515 5512 5509 5506 5504 5502 5499 5497 5495 5493 5492 5491
5698 5694 5689 5684 5679 5674 5669 5664 5658 5653 5647 5642 5636 5630 5625 5618 5612 5605 5597 5590 5581 5573 5566 5558 5551 5544 5537 5531 5525 5520 5515 5512 5509 5507 5505 5503 5500 5498 5495 5493 5491 5490 5489
5686 5682 5677 5672 5666 5662 5657 5652 5646 5641 5635 5629 5624 5618 5613 5606 5600 5593 5585 5577 5570 5563 5556 5550 5544 5538 5532 5526 5521 5517 5514 5512 5509 5507 5505 5502 5500 5497 5495 5493 5491 5490 5489
5674 5670 5665 5661 5655 5650 5645 5640 5634 5629 5623 5617 5612 5607 5601 5595 5588 5582 5575 5569 5562 5556 5550 5544 5538 5533 5528 5524 5520 5518 5516 5513 5511 5508 5506 5503 5500 5498 5495 5493 5491 5489 5488
5663 5659 5654 5650 5645 5639 5634 5628 5623 5617 5612 5606 5601 5596 5590 5584 5578 5574 5568 5563 5557 5552 5546 5541 5536 5532 5528 5525 5523 5520 5518 5515 5513 5510 5507 5504 5501 5498 5495 5492 5490 5487 5485
5652 5648 5644 5639 5634 5628 5623 5617 5612 5606 5600 5595 5589 5584 5579 5575 5571 5567 5563 5557 5552 5548 5544 5540 5536 5533 5530 5528 5525 5523 5520 5517 5514 5511 5508 5505 5501 5498 5494 5491 5487 5484 5482
5642 5637 5632 5627 5622 5617 5612 5606 5601 5595 5589 5584 5580 5576 5572 5569 5565 5561 5557 5552 5549 5546 5543 5540 5537 5535 5533 5530 5528 5525 5522 5518 5515 5512 5508 5505 5501 5497 5494 5490 5487 5484 5482
5633 5627 5622 5617 5612 5607 5601 5596 5591 5586 5581 5577 5573 5570 5566 5563 5559 5555 5551 5548 5546 5544 5542 5540 5539 5537 5534 5532 5529 5526 5523 5520 5517 5513 5509 5506 5502 5499 5496 5493 5491 5488 5486
5624 5619 5613 5608 5603 5598 5592 5587 5582 5578 5575 5572 5568 5564 5560 5557 5553 5550 5547 5545 5544 5543 5542 5541 5540 5539 5536 5533 5531 5528 5525 5522 5519 5515 5511 5508 5506 5504 5501 5499 5496 5494 5492
5615 5610 5604 5599 5594 5589 5584 5580 5576 5572 5569 5565 5561 5557 5554 5551 5548 5546 5544 5544 5543 5543 5543 5543 5542 5540 5537 5535 5533 5530 5528 5525 5521 5518 5515 5513 5511 5509 5507 5505 5502 5500 5498
5606 5601 5595 5591 5587 5582 5578 5574 5570 5566 5562 5558 5555 5552 5549 5547 5545 5544 5543 5543 5544 5544 5544 5544 5543 5541 5539 5537 5535 5533 5531 5528 5525 5522 5521 5519 5517 5515 5513 5511 5509 5507 5505
5598 5593 5589 5585 5581 5577 5572 5568 5564 5561 5557 5554 5551 5549 5547 5545 5543 5542 5543 5544 5545 5546 5546 5546 5545 5543 5541 5540 5538 5536 5534 5531 5529 5528 5526 5525 5523 5520 5519 5517 5515 5513 5511
5593 5588 5584 5579 5575 5571 5567 5564 5560 5558 5555 5552 5549 5547 5545 5544 5543 5543 5544 5545 5547 5547 5548 5547 5547 5545 5544 5542 5541 5539 5537 5536 5535 5534 5533 5531 5528 5526 5524 5523 5521 5519 5517
5588 5583 5579 5574 5571 5567 5564 5561 5559 5556 5554 5551 5549 5547 5546 5545 5545 5545 5546 5548 5549 5550 5550 5550 5549 5548 5546 5545 5544 5543 5542 5541 5541 5541 5540 5538 5536 5533 5531 5530 5528 5526 5524
5584 5579 5575 5571 5567 5565 5562 5560 5558 5556 5554 5552 5550 5549 5548 5548 5548 5549 5550 5551 5552 5553 5553 5553 5552 5550 5549 5548 5548 5547 5546 5547 5547 5547 5546 5545 5543 5542 5540 5538 5536 5534 5532
5582 5577 5572 5569 5566 5564 5562 5560 5558 5557 5555 5554 5553 5552 5552 5552 5552 5553 5554 5555 5556 5556 5556 5556 5555 5554 5553 5552 5552 5551 5551 5552 5553 5553 5553 5552 5551 5549 5548 5546 5545 5543 5541
5581 5576 5572 5569 5566 5564 5563 5561 5560 5559 5558 5557 5556 5556 5556 5556 5557 5558 5559 5559 5560 5560 5560 5559 5558 5557 5557 5556 5556 5556 5556 5557 5558 5558 5559 5559 5558 5557 5555 5554 5553 5551 5550
5583 5578 5574 5570 5568 5566 5565 5564 5563 5562 5561 5561 5561 5561 5561 5562 5562 5563 5563 5564 5564 5564 5564 5563 5562 5561 5561 5561 5561 5561 5561 5562 5563 5563 5564 5564 5564 5563 5562 5561 5560 5558 5557
5586 5581 5577 5573 5571 5569 5568 5567 5567 5566 5566 5565 5566 5566 5567 5567 5567 5568 5568 5568 5568 5568 5567 5567 5566 5566 5565 5565 5565 5566 5566 5567 5568 5568 5569 5569 5569 5569 5568 5567 5566 5565 5564
5591 5586 5581 5578 5576 5574 5573 5572 5572 5571 5571 5571 5571 5572 5572 5572 5572 5572 5572 5572 5571 5571 5571 5571 5570 5570 5570 5569 5569 5570 5571 5571 5572 5573 5574 5574 5574 5574 5573 5573 5572 5571 5570